Vertical_Velocity
2 -2 0 0 -1 0 -1 -0 -1 1 -3 2 0 1 -1 -2 -0 -1 -1 -1 -1 -0 -1 -1 1 0 -0 -1 -2 -1 -4 -4 -3 -1 -6 4 -3 8 -3 0 2 -8 7 -5 3 -0 -1
1 -2 -0 1 -1 -0 -1 -2 -0 1 -3 -0 0 2 -0 -1 -1 -1 -1 -1 -1 -0 1 -0 2 2 0 -3 -8 5 -0 -6 -4 -1 -1 -3 0 9 -0 -1 -0 -1 3 -6 -0 0 -4
-1 -1 -1 1 -1 -1 -0 -2 -1 -2 -0 -0 -2 1 -1 -1 -2 -4 -1 -1 1 -1 3 -0 -1 1 2 -9 -2 -1 1 1 -2 -10 -4 1 3 16 9 12 1 9 2 0 -8 1 -8
1 -0 -1 0 0 0 -1 -2 -0 -1 0 -0 0 1 -1 -1 -3 -2 -3 -2 -1 3 0 -2 -4 -3 -12 2 1 -6 1 -2 2 -3 -1 3 5 7 11 8 3 1 5 10 -4 -0 -4
4 2 -1 0 0 -1 -2 1 -2 1 -1 -1 2 2 -1 -2 -4 -2 -2 -1 -3 1 2 1 -1 -1 -6 -3 -5 4 -6 0 -1 5 -0 10 5 2 12 -2 13 6 -1 -8 10 -10 4
2 3 1 0 1 0 -2 -1 -1 -0 -2 -1 2 3 -2 -1 1 3 -2 -0 -2 7 -1 -2 -1 2 -8 1 -5 1 -2 -1 5 14 9 7 -12 6 -1 -0 -21 -2 -4 5 -8 3 0
-1 1 -0 1 3 3 -0 -1 -1 -0 -1 -1 2 1 1 -1 -3 2 2 4 3 8 -5 -5 -3 3 5 -1 -6 -0 2 4 -0 12 -3 -10 -7 -21 -26 13 2 -6 7 1 -4 1 4
3 -3 3 -0 2 2 1 -1 -0 1 -1 -1 0 2 2 -0 -1 4 -0 -2 1 6 4 0 -4 1 -3 -1 -5 -0 -0 -4 -4 -22 16 28 -28 -8 49 -2 -4 4 0 -2 16 -2 3
-4 4 1 -2 1 3 1 -0 1 0 -1 0 -0 2 2 -0 0 1 2 -1 7 4 17 -7 7 3 -1 3 -3 6 -2 -1 4 13 26 -36 -31 22 5 11 10 -2 -1 1 6 -3 -4
4 0 0 2 -3 3 2 1 2 -0 1 -0 -1 2 1 2 -3 -0 -1 4 10 9 23 -5 -4 -11 -12 4 -21 1 -2 8 8 -26 24 10 11 5 7 4 -5 0 3 4 -1 -0 9
3 2 3 1 -2 1 2 2 1 2 1 -0 -0 2 0 2 1 3 -0 6 4 23 6 -4 -1 4 -2 -7 -3 -8 6 -1 -1 -7 3 -31 -1 17 -3 -24 -3 5 -5 2 2 0 -2
2 0 2 2 2 -1 1 2 1 2 1 0 -0 2 1 2 1 2 0 4 9 14 -4 -1 2 0 -1 -1 2 11 1 7 4 17 8 21 3 19 -6 2 6 2 -2 4 -1 -1 5
4 1 -0 3 6 -2 1 2 1 1 1 1 1 3 2 1 6 1 -3 11 7 4 -2 3 -1 2 8 -8 2 -1 -5 -17 -10 3 -7 3 -6 4 38 5 19 0 2 2 7 3 -3
3 -1 2 4 5 -0 2 3 1 2 1 2 2 3 1 4 5 4 1 11 9 1 -3 -6 -2 3 2 -3 4 -5 2 6 -0 3 12 -9 10 4 -0 -8 -25 -12 -11 -5 -3 -1 -1
-1 5 5 5 6 0 1 2 2 1 3 2 3 2 1 3 3 2 10 8 -6 -1 1 -5 10 6 7 -1 1 7 6 9 -10 5 -0 -5 7 10 2 1 -5 2 -3 9 -4 -4 3
29 -2 -2 5 4 -0 2 2 3 1 4 1 3 1 3 2 4 2 13 -2 -1 3 2 6 -4 -4 -3 -1 -3 1 -2 -12 -13 -4 15 -15 11 15 -3 4 1 4 -7 -1 -3 2 0
33 -0 0 3 8 -2 3 1 4 1 4 2 3 1 1 3 4 5 -6 -2 1 6 6 -3 -2 -4 -1 -13 -3 -4 -1 3 -6 6 5 8 10 13 4 -0 -15 7 1 -6 3 -2 1
37 2 2 3 7 -1 4 3 4 2 4 3 3 3 -4 3 4 0 -2 -3 5 4 -1 2 6 2 1 1 -13 8 -1 0 -6 4 -3 -6 16 -7 -3 2 -4 0 -3 -7 0 -1 -2
11 18 0 3 4 2 3 3 4 1 4 3 2 3 -6 6 -4 -0 -1 1 8 5 -4 -1 2 1 4 -7 -10 -6 -5 -3 -2 -9 -7 -4 4 1 10 4 11 0 -4 -3 3 2 -5
-5 17 2 5 5 2 1 3 4 2 4 3 5 3 -1 2 0 10 13 -1 2 -3 0 7 9 3 4 -1 -2 -7 -1 -1 -0 -6 -1 11 3 -4 -17 -18 -9 -2 3 4 1 4 -3
-13 22 1 2 8 2 0 4 3 3 4 3 2 1 -3 -7 -6 3 10 7 2 9 3 25 4 1 -8 -2 -0 -4 8 -1 1 -5 0 7 5 -0 -2 -2 2 -4 -4 -9 -9 -11 -2
-7 10 5 5 6 2 3 4 -0 4 3 1 3 3 -0 1 2 4 12 -4 -2 8 -6 -5 -2 1 -2 -4 -16 -9 -7 -4 -12 4 12 4 1 4 5 3 2 -1 3 7 3 5 10
-6 10 4 6 5 -1 3 2 2 4 3 2 5 3 1 2 1 7 3 -0 0 8 -5 0 5 2 3 -3 4 -3 2 2 -1 -6 3 2 2 0 5 2 3 5 -13 -7 1 -2 -3
-8 5 14 4 6 -0 2 3 2 1 4 3 4 3 1 -4 -0 8 3 0 8 2 2 4 1 4 0 -4 7 14 1 12 6 -5 7 -2 7 1 2 -2 2 -4 0 -0 1 7 1
-6 0 13 5 6 -0 1 3 1 3 2 2 3 2 -0 -1 1 1 2 -2 1 2 7 -1 3 -2 7 10 16 7 20 8 10 7 6 -1 4 -4 -1 -7 -3 -0 -7 -4 -7 -5 -2
2 -2 12 4 -5 27 3 1 3 3 0 3 3 1 -0 2 4 3 -1 -1 -0 1 1 1 2 4 3 4 1 -4 -1 1 -3 3 3 8 10 -7 -2 3 -1 -1 1 0 2 -9 -1
-2 -9 8 11 4 12 1 1 4 1 2 3 2 2 1 -1 3 3 5 -4 2 6 -2 0 0 9 -1 9 4 -1 -0 1 -7 -4 -6 -2 2 -7 -0 0 -6 -1 1 -0 0 -5 -4
2 -8 5 15 15 -2 1 2 3 1 2 2 4 -0 1 -1 1 4 6 -2 -3 -2 -2 -5 6 6 1 4 -3 -1 -1 1 4 4 -6 -10 -6 -4 5 2 -17 -2 -0 -0 -1 -1 -4
-4 -9 9 22 -1 -4 -0 2 2 2 2 4 -1 1 0 -2 0 3 4 2 1 -0 -1 -3 -4 -4 -4 -6 1 -4 -5 -4 2 -2 4 2 -8 -9 -6 -5 -3 1 3 1 0 0 -3
Height
3097 3095 3095 3092 3089 3088 3086 3083 3081 3078 3078 3077 3074 3074 3073 3071 3069 3067 3065 3064 3063 3062 3063 3064 3065 3066 3067 3069 3069 3071 3076 3082 3086 3090 3094 3097 3102 3107 3112 3117 3123 3124 3129 3130 3133 3135 3135
3092 3090 3089 3088 3086 3083 3081 3078 3076 3074 3073 3073 3069 3069 3068 3066 3063 3060 3059 3057 3056 3057 3057 3059 3060 3060 3062 3061 3064 3070 3071 3077 3082 3085 3089 3093 3097 3104 3110 3116 3117 3120 3123 3125 3129 3131 3132
3086 3085 3083 3083 3081 3078 3076 3074 3071 3070 3068 3068 3065 3063 3063 3061 3058 3055 3054 3051 3052 3052 3053 3055 3056 3055 3054 3058 3060 3063 3066 3068 3075 3080 3084 3089 3095 3100 3105 3110 3113 3119 3120 3122 3124 3126 3128
3079 3078 3077 3077 3076 3074 3071 3069 3067 3065 3063 3062 3060 3058 3059 3057 3054 3051 3049 3048 3047 3048 3050 3050 3050 3051 3047 3054 3055 3056 3059 3063 3067 3071 3078 3083 3090 3092 3096 3104 3108 3112 3116 3116 3120 3122 3124
3072 3070 3070 3070 3070 3069 3067 3064 3062 3061 3058 3057 3055 3053 3054 3052 3049 3046 3045 3045 3044 3045 3046 3045 3046 3046 3044 3047 3049 3052 3053 3058 3061 3065 3071 3076 3082 3085 3093 3096 3103 3103 3104 3109 3116 3117 3120
3065 3064 3061 3063 3063 3063 3061 3059 3057 3056 3053 3051 3049 3047 3047 3046 3045 3042 3040 3041 3041 3040 3039 3040 3041 3045 3040 3042 3043 3044 3048 3051 3055 3060 3064 3067 3073 3078 3083 3087 3084 3094 3101 3105 3110 3115 3113
3056 3058 3055 3054 3055 3056 3055 3054 3052 3051 3048 3045 3043 3041 3042 3041 3039 3037 3035 3035 3036 3033 3030 3031 3033 3035 3035 3037 3039 3040 3041 3046 3048 3052 3054 3060 3066 3063 3071 3078 3090 3096 3099 3102 3107 3109 3110
3048 3049 3051 3046 3047 3048 3048 3048 3047 3045 3043 3041 3037 3036 3036 3035 3033 3031 3028 3025 3024 3027 3025 3026 3026 3028 3029 3032 3036 3036 3038 3041 3042 3044 3051 3055 3054 3062 3067 3078 3085 3091 3095 3099 3105 3104 3106
3040 3039 3042 3041 3039 3040 3041 3041 3040 3039 3038 3036 3032 3030 3030 3029 3027 3025 3021 3020 3020 3021 3020 3018 3017 3019 3023 3028 3030 3032 3035 3037 3037 3037 3040 3044 3049 3059 3065 3072 3079 3087 3091 3096 3101 3101 3103
3030 3031 3032 3035 3033 3032 3033 3034 3033 3032 3032 3030 3026 3024 3024 3022 3022 3019 3016 3014 3015 3016 3014 3010 3009 3009 3015 3021 3022 3027 3030 3035 3033 3033 3037 3045 3051 3054 3059 3065 3076 3082 3088 3092 3096 3100 3099
3021 3021 3022 3026 3026 3025 3026 3026 3026 3026 3025 3024 3021 3018 3018 3015 3015 3014 3013 3010 3010 3013 3009 3005 3003 3005 3007 3014 3019 3019 3025 3029 3029 3029 3034 3036 3041 3044 3055 3060 3073 3081 3084 3090 3094 3096 3097
3010 3011 3013 3016 3019 3018 3019 3019 3019 3019 3018 3018 3015 3013 3012 3011 3010 3009 3008 3007 3009 3011 3002 2998 2998 2998 3003 3008 3016 3018 3020 3025 3028 3028 3031 3036 3040 3041 3051 3061 3069 3075 3082 3088 3092 3095 3093
2998 3001 3003 3007 3010 3011 3012 3012 3012 3012 3012 3012 3010 3009 3007 3005 3006 3004 3003 3004 3007 3001 2996 2995 2993 2995 2998 3003 3011 3014 3015 3018 3020 3024 3027 3032 3030 3040 3048 3054 3064 3072 3079 3086 3092 3092 3085
2989 2992 2994 2998 3001 3003 3004 3005 3005 3006 3006 3006 3005 3004 3002 3001 3001 3001 2998 3000 2997 2990 2989 2990 2991 2994 2997 3003 3009 3010 3014 3017 3017 3021 3024 3028 3029 3033 3041 3050 3054 3065 3072 3073 3073 3076 3077
2978 2984 2987 2990 2993 2996 2997 2998 2999 2999 3000 3001 2999 2998 2997 2996 2994 2994 2993 2992 2987 2986 2986 2987 2991 2994 2998 3002 3006 3008 3011 3015 3017 3017 3024 3028 3029 3029 3042 3047 3056 3062 3067 3073 3075 3076 3076
2965 2974 2979 2982 2985 2988 2990 2991 2992 2993 2994 2995 2994 2993 2993 2990 2989 2988 2988 2986 2983 2982 2983 2986 2988 2991 2994 2999 3003 3007 3011 3012 3015 3018 3023 3026 3029 3034 3038 3048 3055 3057 3065 3072 3073 3073 3072
2953 2963 2969 2973 2979 2980 2983 2985 2986 2987 2988 2989 2989 2988 2988 2987 2986 2984 2982 2981 2980 2980 2982 2985 2986 2989 2992 2995 3001 3005 3008 3010 3014 3019 3021 3028 3030 3035 3040 3044 3047 3055 3058 3064 3069 3070 3063
2942 2952 2961 2967 2971 2973 2976 2978 2979 2981 2983 2984 2984 2985 2984 2984 2983 2980 2976 2977 2979 2978 2980 2984 2986 2989 2992 2995 2999 3003 3006 3009 3012 3018 3021 3026 3031 3034 3039 3043 3048 3054 3056 3062 3065 3068 3067
2934 2944 2952 2959 2963 2966 2969 2971 2973 2975 2977 2979 2979 2981 2980 2981 2978 2975 2973 2974 2974 2978 2979 2982 2985 2988 2989 2994 2999 3000 3004 3010 3012 3017 3021 3026 3031 3035 3042 3047 3048 3050 3053 3058 3062 3061 3062
2928 2934 2943 2951 2956 2958 2962 2965 2967 2969 2971 2974 2976 2977 2976 2974 2974 2973 2972 2972 2972 2975 2978 2981 2983 2985 2988 2992 2996 2999 3003 3007 3010 3016 3022 3027 3027 3029 3031 3035 3040 3043 3046 3051 3056 3057 3058
2924 2926 2934 2943 2948 2952 2955 2958 2962 2964 2966 2970 2970 2971 2972 2969 2969 2969 2969 2968 2969 2972 2975 2977 2980 2983 2986 2991 2995 2996 3001 3004 3009 3015 3020 3024 3027 3029 3031 3033 3035 3038 3040 3044 3046 3052 3053
2917 2920 2927 2936 2941 2945 2948 2951 2955 2958 2961 2963 2965 2967 2968 2968 2966 2966 2963 2960 2963 2966 2969 2971 2975 2979 2983 2986 2989 2990 2995 3001 3003 3011 3017 3023 3027 3027 3029 3031 3033 3035 3036 3038 3041 3045 3046
2911 2911 2920 2929 2934 2938 2942 2945 2949 2952 2956 2957 2960 2963 2964 2964 2964 2963 2959 2958 2957 2960 2964 2967 2972 2977 2980 2985 2990 2995 2998 3001 3004 3006 3011 3021 3025 3027 3028 3028 3031 3033 3029 3031 3035 3038 3041
2904 2906 2914 2922 2928 2932 2936 2939 2943 2946 2950 2954 2957 2959 2960 2960 2962 2960 2957 2955 2954 2956 2961 2963 2970 2975 2981 2985 2989 2995 2999 3002 3004 3008 3014 3018 3023 3025 3026 3028 3029 3023 3022 3026 3028 3031 3034
2899 2900 2906 2915 2922 2928 2931 2934 2938 2941 2945 2949 2952 2955 2956 2957 2959 2958 2956 2954 2955 2957 2958 2964 2968 2974 2978 2983 2987 2993 2997 3000 3002 3006 3011 3016 3020 3022 3026 3027 3023 3019 3019 3021 3022 3024 3027
2893 2895 2899 2909 2916 2922 2926 2930 2933 2937 2940 2944 2948 2951 2953 2956 2957 2956 2955 2955 2955 2958 2961 2964 2969 2973 2977 2982 2985 2987 2991 2995 3001 3005 3008 3014 3017 3021 3022 3024 3019 3015 3016 3018 3020 3020 3021
2887 2890 2893 2903 2911 2915 2920 2925 2928 2932 2935 2940 2944 2947 2950 2952 2954 2955 2954 2955 2955 2958 2961 2964 2967 2971 2975 2978 2983 2987 2989 2992 2995 2997 3004 3009 3013 3015 3020 3020 3016 3015 3015 3016 3020 3021 3017
2882 2883 2887 2895 2903 2910 2915 2920 2923 2927 2931 2935 2940 2943 2947 2950 2952 2952 2954 2954 2955 2957 2960 2964 2970 2971 2973 2976 2980 2983 2986 2989 2991 2994 2996 3002 3009 3013 3018 3018 3018 3012 3013 3015 3015 3013 3015
2876 2877 2881 2888 2899 2904 2910 2915 2919 2923 2927 2931 2936 2940 2943 2947 2950 2951 2953 2955 2956 2957 2959 2963 2967 2969 2972 2975 2979 2981 2984 2986 2988 2992 2995 3001 3002 3004 3007 3007 3007 3006 3008 3009 3011 3012 3013